Theta_e
305 305 305 305 305 305 304 305 304 304 303 298 293 288 291 289 286 288 290 294 291 288 281 279 279 278 279 277 278 279 281 280 279 279 280 279 280 279 279 278 278 279 278 278 279 278 276 278 278 278 279 279 282 281 280 280 279 280 284 285 285 285 282 282 281 284 285 286 286 284 283 284 284 284 285 285 285 284 283 283 283 281 278 279 280 278 283
305 305 305 305 305 304 304 304 304 303 302 296 292 291 289 290 287 286 290 292 291 284 279 280 278 277 274 276 279 281 281 279 278 279 279 278 278 278 278 278 280 277 279 278 277 279 274 277 277 277 278 279 282 279 279 280 281 282 283 283 285 281 281 282 280 279 281 282 282 283 283 283 283 284 284 283 283 284 283 281 280 281 281 281 281 277 283
306 306 305 305 305 305 304 304 304 304 302 297 293 290 289 288 287 288 287 290 290 285 282 281 279 276 274 272 277 278 278 281 280 279 279 280 279 278 277 278 278 277 278 274 276 276 276 275 278 276 277 278 281 279 278 279 281 281 284 285 286 282 281 281 278 275 274 273 275 279 281 283 284 283 282 282 283 283 283 282 282 279 278 278 281 283 286
306 306 305 305 305 305 305 304 304 303 303 299 293 289 288 286 281 285 285 285 286 283 282 282 280 271 268 273 275 276 277 279 279 280 278 279 278 277 277 277 278 276 276 274 270 274 277 275 273 276 277 278 279 279 277 279 279 281 285 283 283 279 277 280 281 281 280 282 282 278 279 281 282 283 282 283 281 282 283 284 281 281 280 280 284 283 284
306 306 306 306 305 305 304 304 304 303 303 298 291 287 286 286 287 283 282 284 283 282 282 280 279 281 280 278 276 275 276 277 276 279 276 278 278 277 276 276 275 274 275 273 272 271 273 274 272 275 276 278 278 279 277 277 281 283 284 283 282 278 280 276 275 276 278 277 276 276 277 279 282 282 283 281 281 281 282 282 282 284 281 280 283 280 282
307 306 306 306 305 305 305 304 303 304 302 298 294 289 286 284 284 283 282 279 282 281 280 282 280 278 280 279 277 277 276 275 276 276 277 277 278 276 274 275 276 276 275 275 274 272 270 271 275 275 275 275 277 279 277 279 280 282 282 283 282 280 279 276 275 277 276 275 275 274 276 277 278 279 282 282 282 280 280 281 283 283 282 282 282 280 282
307 307 307 306 306 306 305 303 303 303 300 297 292 290 285 286 284 283 282 284 280 279 280 281 281 279 280 281 277 276 275 276 277 277 276 276 275 277 275 275 277 276 276 275 276 274 273 273 272 273 276 275 276 279 278 277 281 281 280 280 279 281 279 276 275 276 277 275 274 274 276 276 277 279 280 281 281 282 283 284 282 283 284 283 281 281 282
308 307 307 306 306 306 306 303 302 303 299 294 289 289 287 285 284 283 282 281 279 278 279 280 278 278 281 279 278 277 276 277 276 276 277 276 276 278 275 276 276 276 275 276 275 277 276 276 277 276 273 271 275 276 276 278 279 280 277 278 280 279 279 277 276 276 278 277 274 273 275 275 276 279 279 279 279 279 280 281 279 278 280 282 280 281 283
308 307 307 306 306 306 306 305 303 301 298 291 289 286 287 287 286 287 284 282 280 277 276 278 278 278 277 278 278 277 276 277 279 277 279 278 277 276 277 277 276 276 275 275 276 278 277 277 277 277 277 276 279 277 275 277 276 276 276 275 275 279 278 274 275 277 278 276 275 275 275 273 274 275 278 278 277 278 281 280 283 282 283 282 281 282 285
309 308 307 307 306 306 305 305 304 300 296 290 287 287 285 286 285 285 287 282 284 282 275 276 277 278 281 280 280 280 279 278 277 277 278 278 278 279 278 278 278 274 273 275 278 278 278 278 279 279 280 279 279 279 278 278 276 275 275 274 274 272 276 277 276 277 275 274 273 273 274 277 276 280 281 280 280 283 282 282 282 284 286 283 282 285 288
309 309 308 307 306 306 306 306 304 300 296 290 287 286 284 287 286 285 288 282 280 279 278 278 278 283 278 279 278 276 277 277 277 278 277 276 278 278 279 277 276 276 276 277 279 280 279 280 279 280 279 278 278 278 278 277 277 276 276 274 271 270 273 274 271 275 274 272 269 272 274 272 276 280 272 277 280 281 281 283 283 284 284 287 289 289 283
309 308 308 307 307 306 306 305 304 301 299 293 291 287 287 287 287 287 285 281 282 274 278 279 279 279 278 279 278 278 277 276 277 278 277 276 277 277 278 277 276 277 278 280 281 280 280 280 279 279 278 277 277 277 276 276 277 279 278 277 273 271 272 271 267 274 274 271 271 273 267 273 282 276 279 276 277 279 281 284 286 286 285 286 285 285 284
309 309 308 308 307 307 306 305 304 301 298 289 289 288 287 286 289 285 285 283 281 276 277 279 276 276 276 277 275 276 276 275 274 276 276 276 274 276 278 277 276 277 279 279 279 279 276 272 275 273 275 275 275 274 274 275 276 275 278 278 275 272 273 271 270 271 270 271 271 264 272 279 279 275 277 278 277 279 279 280 283 284 285 285 285 287 289
309 309 308 308 308 307 307 306 305 302 298 293 290 289 286 286 286 284 284 283 283 280 280 280 276 276 276 276 277 275 274 274 274 274 275 277 277 276 278 278 278 280 280 280 276 276 273 273 271 273 271 271 272 271 274 275 275 275 275 277 277 275 274 274 273 268 271 270 269 275 276 278 278 276 277 278 280 279 280 279 283 285 286 285 285 287 288
308 308 308 308 308 307 307 306 306 303 299 297 292 286 286 286 286 288 285 285 283 282 279 282 284 280 279 277 277 276 275 275 274 276 275 274 274 277 278 279 278 279 279 279 275 273 273 271 271 270 272 272 270 269 273 270 273 274 275 275 276 276 273 276 275 270 271 273 272 272 274 269 278 281 278 281 280 281 280 279 280 285 284 286 286 286 288
308 308 308 308 308 308 307 307 306 304 301 298 292 289 287 288 287 287 286 285 283 280 283 284 284 279 278 277 277 278 278 276 276 276 274 273 274 276 278 279 279 278 276 272 272 271 270 271 267 267 270 268 267 267 270 270 271 272 273 273 273 273 273 274 275 274 270 269 269 267 267 274 282 280 279 280 280 281 279 279 279 286 283 283 284 285 288
308 308 308 308 308 308 307 307 306 305 303 299 292 290 289 287 288 287 285 283 283 284 283 281 279 279 277 275 276 276 276 277 276 277 276 276 274 274 276 278 278 278 274 276 273 274 272 265 264 268 268 265 267 268 269 268 268 271 272 273 271 271 271 273 272 266 268 269 267 271 269 275 280 279 279 280 281 279 279 275 278 285 284 282 283 284 287
308 308 308 308 308 308 307 307 306 305 303 301 294 290 289 288 288 289 287 284 281 281 280 280 281 280 282 281 279 279 277 275 276 277 277 273 272 275 275 275 275 276 273 275 269 269 263 267 271 269 272 267 266 268 271 270 267 271 271 271 272 271 270 270 272 272 271 271 272 270 275 280 280 279 279 280 279 280 276 274 283 284 283 281 284 285 287
308 308 308 308 308 308 307 307 307 306 304 302 296 293 290 288 287 288 288 283 282 281 284 281 283 284 282 281 281 278 279 280 280 279 276 276 277 277 277 275 278 273 276 273 271 271 271 268 265 266 271 268 265 270 272 270 272 267 270 269 268 267 266 266 265 268 271 271 271 274 276 282 280 278 281 281 279 274 276 285 281 282 282 280 282 285 286
308 308 308 308 308 307 307 307 307 306 304 303 298 293 292 288 288 289 286 284 283 284 282 279 280 282 280 282 279 278 278 279 280 281 278 280 275 276 277 274 276 275 272 274 272 269 270 270 270 265 267 268 268 272 268 270 274 272 271 275 275 275 270 271 271 269 267 267 269 269 271 279 279 280 280 279 279 284 285 284 281 280 281 281 281 283 285
308 308 308 308 308 307 307 307 307 306 305 303 301 293 290 289 288 289 290 288 284 281 283 282 280 284 282 282 285 285 283 283 280 280 281 281 279 279 276 277 278 275 274 274 274 272 270 269 265 266 271 272 271 270 270 270 272 275 274 275 275 278 274 272 270 275 275 269 268 273 282 283 281 284 283 281 284 285 283 283 284 281 281 282 282 282 283
308 308 308 308 308 307 307 307 307 306 306 304 301 295 293 289 286 289 288 289 284 283 285 284 282 283 285 286 286 287 288 288 285 287 282 278 278 280 279 277 277 277 274 273 271 268 269 267 266 266 270 269 266 270 269 272 273 272 266 271 274 278 279 279 279 278 277 275 279 283 279 281 283 284 284 283 284 282 282 283 284 284 284 281 283 284 283
308 308 308 308 308 307 307 307 307 306 306 305 301 295 292 285 285 289 289 286 287 287 287 284 283 283 286 287 287 285 285 287 286 283 285 283 278 278 277 279 280 279 273 276 280 279 276 271 273 275 270 272 273 269 265 271 272 271 273 276 279 276 276 275 276 278 279 280 281 283 281 278 280 284 284 283 283 282 281 282 283 283 284 283 284 284 283
308 308 308 308 307 307 307 307 307 306 306 305 302 296 292 289 288 287 287 287 285 283 286 286 284 283 284 285 288 287 285 284 286 287 286 287 281 278 278 280 279 275 276 275 277 278 272 272 272 271 273 275 273 272 272 271 270 273 272 274 277 279 276 275 277 278 278 279 283 281 282 282 281 282 284 285 284 284 282 282 282 284 283 282 283 283 282
308 307 307 307 307 307 307 307 307 306 306 305 303 301 295 289 288 289 286 283 280 281 280 282 282 286 283 282 282 284 285 287 288 286 285 284 286 283 281 282 280 282 280 277 273 276 273 273 269 271 272 277 278 276 277 275 277 277 274 277 275 278 279 278 278 274 278 281 283 281 278 279 280 282 282 282 283 283 284 284 283 284 282 282 283 282 281
308 307 307 307 307 307 307 307 306 306 306 305 303 297 292 290 290 292 290 287 284 283 279 280 284 281 281 282 282 284 286 286 285 285 286 286 285 286 282 278 279 276 275 275 278 280 274 270 269 271 274 278 281 276 274 277 276 276 276 278 280 279 277 276 278 277 279 281 282 283 283 283 283 282 281 282 283 284 283 282 282 282 283 282 282 282 282
308 307 307 307 307 307 307 307 307 306 306 305 303 300 296 292 291 291 289 287 286 283 283 280 283 281 280 282 284 282 284 284 284 284 284 284 283 283 282 281 279 278 279 275 274 272 269 270 271 275 275 277 276 274 274 275 275 275 274 277 276 277 276 278 277 275 276 278 283 284 281 283 287 285 285 285 284 283 283 284 283 283 282 282 282 282 281
307 307 307 307 307 307 307 307 306 306 306 305 304 301 298 292 291 293 295 292 289 285 282 280 280 282 283 281 284 283 282 283 283 283 283 282 282 283 283 281 280 279 278 278 273 273 274 274 275 274 273 270 273 275 274 275 274 273 273 276 278 278 279 279 278 279 280 284 286 286 286 286 288 289 286 285 285 283 282 282 282 283 283 283 283 282 282
307 307 307 307 307 307 307 306 306 306 306 305 303 299 295 295 293 294 295 295 293 283 281 282 281 280 282 283 281 282 283 283 282 282 282 281 281 282 282 281 281 280 279 279 277 275 275 277 277 275 275 277 276 273 272 271 271 272 278 281 280 280 283 282 283 284 285 287 287 285 285 284 287 287 285 284 283 284 283 284 284 284 284 284 283 283 282
307 307 307 307 306 306 306 306 306 306 306 304 298 292 289 289 294 293 295 295 293 288 284 282 280 283 280 279 279 280 281 281 281 281 281 281 281 281 282 281 281 282 280 279 277 276 276 275 274 273 273 276 278 273 271 271 270 275 281 282 283 282 282 284 285 283 283 287 287 285 285 286 286 287 285 284 283 283 284 285 284 284 283 283 283 282 283
307 307 307 307 307 306 306 306 306 306 305 300 295 287 285 283 290 295 296 295 294 290 284 283 283 281 280 279 279 280 281 280 280 280 280 280 281 281 281 282 282 282 278 276 276 278 276 274 274 275 274 276 280 273 273 268 270 273 279 281 282 283 283 282 284 285 286 286 286 284 282 283 284 285 285 284 279 279 282 283 284 283 284 283 282 282 283
307 307 307 307 306 306 306 306 306 306 304 298 293 290 289 289 291 294 297 296 293 287 283 280 280 278 280 281 276 279 281 281 280 280 280 281 279 281 280 281 279 282 281 278 277 275 274 276 275 275 275 280 280 272 269 270 273 276 282 281 283 284 285 285 285 285 285 285 284 283 283 284 286 284 284 288 286 281 282 284 285 286 282 282 283 283 282
307 307 307 306 306 306 306 306 306 305 302 302 303 300 296 297 297 297 297 294 290 286 286 284 280 279 278 279 276 277 280 279 277 279 277 282 278 280 277 281 280 279 284 279 274 275 277 276 277 274 277 279 277 273 270 273 275 280 282 283 283 284 284 285 286 286 285 285 284 281 281 283 285 286 287 287 287 286 283 282 283 284 281 280 280 280 280
306 306 306 306 306 306 306 306 306 306 305 300 294 296 296 297 298 298 296 293 287 285 285 283 279 278 277 281 277 279 281 278 276 279 276 280 281 279 277 277 279 277 279 277 278 277 275 274 274 275 276 275 276 272 271 275 278 279 281 282 283 283 284 284 284 284 285 284 283 283 285 286 287 287 283 282 283 285 285 284 282 280 279 279 279 280 281
306 306 306 306 306 306 306 306 304 300 296 295 296 296 296 298 298 298 295 290 284 282 282 281 282 277 277 274 275 278 280 278 276 280 278 278 281 277 278 274 277 274 276 282 276 276 275 275 277 273 272 274 273 271 273 277 279 281 281 281 282 283 282 281 282 284 284 285 284 283 283 283 283 282 283 284 284 285 284 283 281 280 280 280 280 280 280
306 306 306 306 306 306 304 303 301 296 294 293 294 297 298 298 298 296 295 290 288 283 282 281 282 278 281 277 276 277 282 276 276 276 277 278 277 278 277 276 272 276 278 277 274 275 275 279 275 272 275 272 272 274 276 279 279 280 281 281 283 283 282 282 283 284 281 281 283 283 283 282 281 281 282 283 283 284 284 283 281 278 279 280 281 281 280
306 305 305 305 303 299 295 294 298 298 294 298 296 299 299 296 293 293 290 289 288 288 283 283 279 279 282 280 277 277 281 274 279 275 277 276 275 278 275 275 273 278 275 274 273 273 277 281 276 273 272 271 275 280 281 281 281 281 282 283 284 284 284 284 284 283 282 280 278 279 280 281 280 281 280 281 281 282 282 281 281 280 278 278 279 280 281
305 305 302 297 295 291 289 291 292 297 298 297 297 291 289 289 282 285 285 283 285 286 283 285 282 285 284 281 275 281 281 277 280 275 275 277 275 273 277 275 275 280 272 274 274 280 277 275 273 272 274 278 280 281 282 282 283 284 283 284 284 285 285 284 283 282 280 279 279 280 280 280 279 280 280 280 280 280 281 282 282 282 282 281 281 281 281
304 300 296 294 292 289 290 289 298 298 296 294 291 284 281 285 283 280 279 283 285 280 284 284 281 286 283 282 281 284 281 279 276 277 272 279 275 272 276 271 278 278 273 274 276 281 274 274 273 273 271 276 278 280 282 283 283 284 284 285 285 285 285 285 285 283 282 282 283 284 284 283 282 282 281 280 281 282 282 281 281 281 281 282 282 282 281
298 293 290 289 291 290 294 297 298 294 291 285 285 283 278 284 279 274 285 277 275 281 285 279 285 285 285 282 278 276 285 280 275 276 276 277 283 275 278 274 277 275 269 274 275 280 274 272 274 271 270 275 277 281 282 283 282 283 284 284 285 285 285 285 285 286 285 285 285 285 285 285 285 284 284 284 282 280 280 280 281 281 281 281 281 281 281
296 291 290 290 289 291 293 295 293 289 286 282 282 280 280 278 279 281 281 274 278 278 285 284 286 282 285 284 282 278 285 283 282 283 281 275 283 280 276 273 282 274 273 273 276 275 273 271 270 270 274 280 280 282 283 282 283 283 284 285 285 285 285 285 285 285 285 284 284 284 285 285 284 284 284 284 284 284 284 284 282 281 280 280 280 280 282
295 294 291 291 290 291 292 289 286 284 283 285 280 274 279 278 282 276 278 275 276 280 278 283 281 282 282 283 282 283 281 284 283 281 279 275 283 277 276 274 276 274 272 276 276 272 272 269 271 272 279 282 284 284 283 282 283 283 284 285 285 285 285 285 284 285 285 284 284 284 285 284 284 284 284 284 284 284 284 284 284 284 282 282 281 281 281
298 294 292 288 288 286 286 282 283 284 277 278 274 272 280 274 276 275 277 281 283 282 279 282 280 287 285 287 282 284 282 285 280 280 279 276 283 278 276 274 274 271 275 276 274 272 270 269 270 276 282 281 282 283 284 284 285 285 285 286 285 286 285 284 284 284 285 284 284 284 284 284 284 284 285 284 284 283 283 283 284 284 284 283 282 281 281
291 291 287 284 283 281 286 276 285 280 273 278 276 272 276 272 276 278 272 277 281 279 281 279 282 282 278 286 282 280 281 283 285 279 277 280 276 273 275 270 274 276 276 270 272 269 273 276 278 281 282 279 281 282 284 284 285 285 285 285 285 285 284 284 284 283 284 284 283 284 284 283 283 284 284 283 283 283 283 283 284 284 283 283 282 281 281
287 285 284 284 280 281 284 273 287 282 273 277 280 278 279 273 277 280 279 285 286 279 284 283 285 283 281 283 281 280 283 278 286 278 274 278 271 276 274 272 275 272 273 272 272 271 269 271 279 281 282 282 284 282 282 283 284 284 284 284 284 284 283 282 282 282 283 283 283 282 282 282 282 282 282 282 283 283 283 283 284 283 282 282 281 281 281
285 283 282 279 274 281 281 274 283 277 278 283 280 281 282 282 282 282 286 289 284 284 282 282 285 283 280 283 280 278 281 280 279 277 279 277 272 272 276 274 274 271 271 271 268 271 275 279 282 284 284 283 284 284 283 283 283 284 283 283 285 286 285 283 282 282 283 283 283 281 281 281 281 281 281 282 282 281 282 283 283 282 281 280 280 281 281
284 286 284 282 279 280 283 277 281 282 284 285 285 286 286 286 286 287 288 287 285 287 284 286 285 284 280 280 278 278 278 281 277 279 278 271 274 274 277 273 270 272 269 269 271 274 277 281 284 285 285 284 284 284 284 284 285 285 285 285 285 285 285 283 282 282 282 282 282 281 280 281 281 281 281 280 280 281 281 281 282 281 281 281 281 281 280
278 284 286 278 276 280 279 279 286 285 286 287 286 287 288 289 287 283 282 286 287 286 283 283 281 282 280 283 282 276 280 280 276 277 278 275 276 267 269 271 270 274 274 273 275 279 281 283 285 285 285 285 285 283 283 284 285 285 285 285 285 285 285 284 283 282 282 282 281 281 281 281 280 280 280 280 280 281 281 281 281 280 280 281 281 281 281
284 284 279 279 285 284 282 285 286 283 284 286 287 287 287 287 286 285 286 287 286 284 285 284 282 283 276 282 277 278 275 278 273 273 278 272 272 267 271 268 270 270 275 278 278 282 283 285 286 285 284 283 284 284 285 285 285 285 285 285 285 285 284 284 284 284 283 282 281 281 281 281 280 280 279 279 279 281 281 280 280 280 280 280 280 280 280
279 278 281 279 278 280 284 286 285 282 285 285 285 285 287 286 286 286 288 286 286 285 285 284 283 277 277 279 269 276 275 280 275 278 276 269 274 273 274 268 272 274 276 280 280 282 285 286 286 285 285 285 284 284 284 285 284 285 286 286 286 285 285 284 284 284 283 283 282 282 281 280 280 280 280 280 280 279 277 278 279 279 279 280 280 279 279
282 281 280 284 279 279 285 280 280 281 283 283 284 285 286 285 287 286 288 287 285 283 282 280 279 277 277 273 273 272 271 280 277 275 276 274 277 274 273 273 276 279 281 284 285 285 285 286 286 286 286 284 283 284 285 285 285 285 286 286 285 285 285 284 284 284 284 284 283 276 280 280 282 282 281 278 277 278 277 276 276 278 279 279 279 279 279
279 275 276 280 283 283 283 283 285 285 286 286 286 287 288 286 288 287 288 287 284 281 279 283 281 274 275 272 275 279 281 276 267 276 275 273 279 276 275 278 281 283 284 284 285 286 287 287 287 285 286 286 285 284 283 284 285 285 285 285 285 285 284 284 283 284 284 283 282 281 281 282 281 277 277 277 276 276 278 280 280 277 277 279 279 279 279
Wind_Speed
10 9 10 10 10 11 11 12 13 15 13 3 2 0 1 2 0 3 2 2 3 1 2 1 1 1 0 2 3 4 2 1 1 2 1 3 1 2 4 3 3 4 2 2 2 2 2 2 1 2 2 3 3 2 1 2 2 2 3 3 3 4 1 4 2 3 4 4 4 3 4 1 3 3 1 2 2 1 1 2 1 2 1 2 1 1 2
10 10 9 9 9 9 10 11 12 12 8 2 2 0 0 0 1 1 3 3 3 2 1 0 0 1 1 1 1 3 2 1 1 2 1 2 1 3 2 1 3 2 1 1 2 3 1 2 2 0 0 1 5 4 3 3 3 3 5 3 4 2 1 2 1 1 3 4 3 3 2 3 2 1 1 0 1 3 2 1 1 2 1 2 1 1 2
11 10 10 9 9 8 8 9 9 11 3 6 2 1 2 2 0 1 1 2 2 2 1 2 1 0 3 1 3 3 3 4 1 1 1 1 2 2 2 2 2 2 1 1 2 3 3 1 2 2 3 2 3 3 3 2 3 3 7 7 6 3 1 2 2 1 1 0 1 1 1 2 1 2 2 2 2 4 2 2 1 1 1 0 1 1 2
11 10 10 10 8 8 7 7 8 9 8 5 2 3 1 0 1 0 0 2 1 3 2 1 2 5 3 0 1 2 1 3 2 2 2 2 0 1 4 1 1 2 2 2 2 3 2 2 1 2 1 2 1 3 2 1 3 8 6 4 2 1 1 1 2 2 2 1 1 3 2 2 3 2 3 2 1 1 1 1 1 2 2 2 4 3 6
11 11 11 10 9 9 8 7 7 7 8 3 3 3 1 1 0 1 1 0 1 1 1 1 1 1 3 1 4 2 2 0 1 2 1 3 2 1 1 1 1 1 3 3 3 3 2 2 1 3 3 3 2 3 3 5 5 9 0 2 1 0 3 2 1 3 3 4 2 2 3 3 1 2 3 2 2 2 4 5 2 3 2 2 1 0 1
10 10 10 10 10 9 8 7 6 6 6 5 1 1 2 0 0 2 1 1 1 0 0 1 2 2 2 0 1 2 2 2 2 2 1 1 2 2 1 2 4 4 4 2 2 1 2 2 2 1 4 4 3 0 2 2 5 6 2 1 0 1 2 3 2 2 1 2 2 2 3 3 4 7 5 6 6 5 6 8 3 5 2 3 3 5 4
12 11 11 10 10 8 6 4 3 3 4 5 2 2 1 1 1 1 3 1 1 1 2 1 3 3 2 0 2 2 5 3 3 2 5 2 2 6 2 4 5 4 3 2 3 1 1 2 2 3 1 2 3 1 1 3 4 6 3 3 1 1 2 1 1 3 3 2 2 1 2 3 5 8 8 6 4 9 10 8 2 8 8 2 1 3 11
12 12 10 11 10 9 5 3 1 2 4 4 1 2 2 2 2 1 1 2 1 1 1 1 1 1 3 1 4 3 6 4 3 1 5 2 3 5 4 5 3 4 4 3 3 2 4 6 3 1 1 2 3 1 2 1 1 4 3 1 2 1 0 3 2 2 3 3 1 3 2 3 6 6 7 6 5 6 7 5 2 3 9 9 3 4 11
14 14 13 12 10 10 7 4 5 3 4 0 2 2 0 1 1 3 4 1 1 1 0 1 1 1 1 2 2 2 4 5 5 3 4 3 5 7 5 4 4 2 3 6 9 9 6 5 5 1 3 5 3 2 1 1 4 4 2 3 4 2 0 2 1 2 3 4 5 4 5 5 7 11 9 7 6 7 7 7 7 7 7 4 3 4 9
14 14 14 13 12 11 8 7 7 6 5 2 2 2 1 2 1 1 1 0 4 2 1 0 0 3 3 5 5 4 5 3 6 2 3 2 1 3 4 5 3 2 2 9 8 5 3 5 4 2 3 3 3 3 3 1 3 3 1 1 0 1 2 1 1 2 2 3 5 6 6 5 7 10 10 12 11 7 2 5 4 10 2 5 4 8 1
15 15 14 14 13 12 10 8 9 9 5 2 2 1 3 4 4 2 1 1 1 2 2 1 2 2 2 2 1 1 2 5 3 3 1 3 4 1 3 7 5 2 6 1 3 3 3 4 3 2 1 2 3 3 3 4 4 4 2 1 2 2 1 2 2 1 1 3 6 3 2 4 4 2 2 5 7 12 14 11 13 14 11 7 5 3 5
17 16 15 15 14 14 12 10 11 10 6 4 2 2 5 2 4 3 1 2 1 1 2 4 7 2 3 4 3 4 7 8 7 3 2 4 2 3 4 3 2 2 2 3 2 4 2 3 2 2 2 2 3 4 5 7 7 4 5 4 1 3 2 2 1 0 1 3 3 2 3 9 1 3 2 3 3 4 10 13 9 5 12 11 9 8 8
19 18 17 16 16 14 14 14 13 13 8 5 4 3 2 2 1 2 2 2 3 5 2 4 1 3 1 2 3 3 1 1 1 2 0 3 3 5 5 5 6 1 2 3 3 1 2 3 3 1 4 4 4 5 8 9 7 3 4 5 3 1 3 4 1 0 0 0 1 0 7 3 3 3 1 2 2 1 3 10 15 14 12 14 14 15 8
20 19 18 18 17 17 16 15 14 15 13 9 5 4 4 4 3 2 2 2 4 2 3 2 2 4 6 7 5 2 3 2 1 1 2 4 6 7 6 4 0 2 2 4 3 2 0 0 2 1 1 2 0 1 1 3 4 5 5 6 5 6 1 1 1 1 2 0 1 8 9 14 4 1 4 5 3 4 4 5 6 5 10 13 15 15 7
22 20 19 19 19 17 17 17 15 17 15 12 5 2 3 3 3 2 1 1 3 0 3 3 3 8 8 4 6 2 1 1 2 3 1 3 2 3 2 2 2 2 3 3 0 1 1 0 1 2 2 0 1 1 2 0 2 1 0 1 3 5 3 3 1 1 1 1 1 3 1 3 5 2 2 2 3 3 3 2 8 2 6 8 14 16 11
22 22 20 20 20 19 19 18 16 18 17 14 6 4 6 5 4 2 2 3 2 4 6 14 6 6 4 2 6 6 3 2 2 0 1 2 4 1 1 2 2 3 3 4 1 1 0 0 2 2 2 1 1 1 1 1 1 2 2 0 2 1 2 3 1 1 2 1 2 3 3 6 2 2 2 4 5 4 2 1 4 1 2 4 10 14 7
23 22 21 21 20 20 19 19 18 18 18 16 6 5 5 8 7 5 2 0 3 8 1 7 6 7 6 3 1 3 3 2 4 2 2 1 3 3 3 1 2 2 3 0 1 0 0 2 0 0 2 3 2 1 2 0 1 0 1 0 4 2 2 1 0 1 2 2 2 4 5 4 2 4 3 5 5 7 3 2 1 4 4 3 5 9 7
23 23 22 21 21 21 21 20 19 20 20 19 8 5 4 6 7 5 0 2 4 4 4 11 10 3 4 5 4 1 4 2 1 0 0 2 3 3 4 2 2 1 3 2 1 2 1 1 3 3 3 1 1 2 1 2 2 2 3 2 2 1 0 1 4 1 1 3 3 3 5 6 4 5 5 5 5 4 1 3 1 1 3 2 3 3 4
24 24 23 23 22 21 21 21 21 21 21 20 7 2 4 8 8 4 2 1 2 6 2 5 2 5 4 5 4 5 3 3 3 4 1 1 2 3 6 2 1 2 1 2 1 2 3 2 3 0 2 1 1 3 1 2 3 2 3 3 0 1 1 0 1 2 3 2 3 4 5 5 5 2 5 4 4 2 4 1 1 1 2 1 3 3 6
24 24 24 24 24 23 23 23 22 21 22 22 13 7 2 8 10 13 8 4 1 6 2 8 8 12 8 11 8 4 2 1 2 2 4 2 2 5 2 1 1 3 1 1 3 0 1 3 2 1 2 2 3 2 0 5 1 6 5 3 2 6 5 4 3 2 2 1 1 3 4 1 6 14 5 1 2 1 2 1 2 3 1 2 3 6 6
25 25 25 25 24 24 24 24 24 23 24 25 17 7 3 3 7 7 3 2 1 4 6 3 3 9 9 9 12 14 13 8 8 3 2 1 7 5 3 5 7 6 6 6 7 4 4 2 2 3 1 1 0 1 3 1 4 4 1 3 3 5 2 1 2 7 3 4 5 6 3 3 9 12 6 9 8 2 4 3 1 2 3 3 3 5 7
26 26 26 26 25 25 25 24 24 24 24 25 20 8 9 4 5 6 4 3 4 7 1 2 4 6 7 6 5 6 8 6 11 7 7 3 3 3 1 3 6 4 2 3 3 1 1 1 2 0 2 1 2 4 1 1 3 1 3 0 3 11 7 2 1 4 6 6 7 3 0 2 9 9 3 2 1 2 4 2 2 1 3 4 2 4 6
27 26 26 26 26 26 26 25 25 25 25 27 19 11 9 7 4 6 7 5 2 4 4 2 2 6 4 7 9 9 5 3 5 1 5 6 2 2 3 3 2 2 1 1 3 2 2 6 4 2 1 3 6 3 2 3 3 2 4 8 3 5 1 3 1 4 5 10 13 8 4 4 8 11 6 5 3 3 3 5 5 6 4 5 4 2 5
28 28 27 27 27 27 27 26 27 26 25 27 21 12 8 8 10 9 4 1 2 5 5 6 2 9 12 18 12 6 5 4 9 6 1 3 5 1 1 3 2 2 1 4 0 2 3 1 0 0 3 2 4 2 5 5 9 3 1 3 3 3 4 2 4 2 2 7 3 7 13 7 11 11 12 9 9 8 5 3 8 8 4 5 6 4 3
29 28 28 28 28 28 28 28 28 27 27 28 23 12 8 6 10 13 11 7 4 5 8 1 11 6 2 1 3 2 9 3 5 8 7 3 6 6 6 3 5 4 5 4 2 4 2 2 1 1 4 4 6 5 2 2 4 8 8 4 2 2 6 4 7 1 6 10 2 4 2 6 5 6 9 12 13 12 11 12 9 7 4 5 7 5 6
30 29 29 29 28 28 28 28 29 29 28 29 24 14 13 11 11 10 5 3 2 2 4 10 5 4 2 0 6 4 3 8 10 9 9 6 2 2 8 7 3 5 6 2 1 3 2 1 1 1 2 5 4 3 3 4 2 0 7 7 3 4 8 5 5 6 9 13 19 19 14 15 16 14 12 11 10 8 8 10 10 8 11 12 11 10 9
29 29 29 29 29 29 29 29 30 30 29 27 21 14 12 9 14 16 14 10 6 5 8 10 2 1 2 5 1 3 2 6 7 9 8 6 6 5 6 6 8 3 4 3 2 3 2 1 2 5 4 3 1 3 0 2 2 4 7 5 7 7 7 4 2 4 7 11 12 7 3 4 7 9 15 16 16 13 13 9 8 10 13 11 11 12 10
29 29 29 29 30 30 29 29 28 28 28 28 19 13 11 11 14 14 12 12 15 8 2 2 1 1 3 4 2 1 2 5 7 8 9 8 8 9 9 8 6 5 3 6 1 2 2 5 7 1 0 1 1 5 2 2 3 4 10 10 10 12 11 10 9 9 12 17 18 7 6 8 13 9 4 7 6 8 11 11 11 11 13 10 10 12 10
30 29 29 30 29 29 28 28 29 28 29 23 13 10 9 10 12 16 16 13 9 1 3 1 1 1 4 1 3 2 1 4 8 9 8 9 9 9 9 9 7 4 3 1 1 1 3 3 3 5 4 4 3 2 3 4 4 13 18 14 13 18 13 18 22 20 18 17 11 5 7 11 11 7 3 5 4 7 11 12 11 14 13 9 9 11 11
29 29 29 29 29 29 30 29 30 29 28 16 10 4 7 5 10 15 17 14 11 3 5 5 5 4 3 3 3 3 2 3 4 6 9 8 7 7 6 8 4 4 2 3 3 4 3 1 2 2 2 1 3 1 3 1 5 13 15 16 17 13 15 19 19 17 17 12 7 5 10 10 10 11 5 4 5 8 8 11 13 13 12 9 11 11 10
29 29 29 29 30 30 30 30 30 30 26 14 10 7 8 11 14 17 19 14 10 6 2 1 7 2 3 1 2 8 9 8 6 7 7 5 5 4 3 4 0 5 3 1 1 2 2 4 3 3 1 5 4 3 3 3 6 8 19 17 20 18 17 20 19 17 15 15 15 3 3 10 8 8 11 13 6 8 8 11 13 11 10 8 12 12 10
29 28 28 29 29 29 28 29 30 28 19 16 19 15 5 2 5 20 22 15 11 5 5 3 2 2 3 2 1 1 6 5 4 3 2 5 3 4 3 5 2 3 3 2 1 1 4 1 3 3 4 6 6 1 2 3 7 27 18 10 17 19 18 13 11 9 12 17 16 14 15 16 16 15 15 16 7 9 15 14 16 10 8 9 9 9 9
28 28 29 28 26 27 29 29 31 24 16 22 14 10 7 18 27 29 23 15 7 3 2 2 7 1 2 3 3 2 3 4 1 2 3 3 4 4 3 2 2 1 3 3 4 5 1 5 3 4 4 3 4 2 4 9 21 34 26 15 18 17 17 13 8 8 14 13 13 15 17 18 17 15 14 15 17 13 13 13 12 7 4 5 7 9 9
27 26 27 28 28 28 28 29 27 27 22 14 11 18 9 18 25 27 19 13 5 2 2 4 4 6 3 2 2 4 8 5 4 7 4 2 2 4 4 4 3 3 5 8 2 1 0 0 4 4 3 4 1 1 9 18 30 32 28 25 22 19 19 16 14 15 17 13 8 13 17 16 15 11 5 8 13 15 11 7 6 7 8 6 10 12 12
26 26 26 27 27 27 29 27 18 15 14 13 13 6 12 23 23 27 24 13 9 3 3 5 2 2 3 0 4 3 5 2 4 6 5 2 1 4 3 4 4 5 4 3 2 3 3 6 3 3 7 4 4 11 12 23 31 26 25 23 21 17 14 14 20 21 18 12 11 12 13 14 15 13 15 17 16 15 13 12 9 8 9 11 12 11 10
26 26 26 26 26 24 16 17 12 8 8 12 13 14 26 24 25 19 17 4 5 7 7 4 5 10 8 10 7 3 7 1 0 3 1 4 1 0 2 4 3 6 2 4 4 3 6 4 4 7 7 9 17 13 21 23 24 28 27 23 21 13 15 18 21 16 1 4 9 11 13 13 15 17 16 16 16 16 16 14 7 9 12 13 14 14 11
25 25 26 26 14 6 9 7 7 13 10 7 16 27 27 19 6 8 3 1 1 1 5 7 6 10 11 5 3 5 8 6 5 3 3 4 5 1 3 2 6 2 1 4 4 7 4 4 5 6 10 16 16 16 23 22 21 26 26 19 17 13 15 15 15 12 11 10 9 9 12 14 14 12 13 14 15 16 14 14 14 14 14 16 16 15 15
24 25 14 7 5 7 3 6 6 14 31 34 29 13 7 8 6 7 3 5 3 3 3 2 12 5 5 8 8 8 8 6 6 6 3 2 5 2 1 2 4 4 7 4 6 6 3 4 8 12 16 11 13 17 22 22 22 23 22 19 18 18 15 12 8 9 11 12 13 16 16 14 15 14 14 16 15 17 17 17 15 12 13 14 15 15 14
21 11 7 6 6 7 7 3 18 36 21 9 8 5 2 2 6 4 5 3 4 7 5 8 14 11 11 10 3 8 5 10 9 4 6 8 5 3 3 4 4 3 4 2 4 13 5 6 7 9 17 7 10 29 28 21 20 22 22 18 16 17 15 15 13 15 18 18 19 18 15 15 15 16 14 15 14 14 15 14 14 13 13 14 15 14 13
9 10 7 5 10 5 6 20 35 21 9 5 1 5 6 4 6 5 5 5 2 2 5 13 13 11 13 16 13 8 4 8 11 10 6 3 2 5 3 3 3 5 5 6 3 7 4 5 5 5 9 11 20 30 15 12 19 25 22 19 19 19 18 17 17 16 17 18 17 18 18 17 17 15 14 12 11 11 12 12 13 13 13 14 14 13 14
8 3 5 8 4 5 11 14 8 6 5 5 4 1 4 6 4 3 5 6 5 4 5 5 3 6 10 8 13 12 4 4 2 4 4 5 3 6 3 5 2 3 6 6 1 3 1 5 5 9 8 10 19 18 8 13 19 24 19 15 15 15 17 18 18 19 17 17 16 16 18 19 18 17 15 16 14 13 14 14 13 13 13 12 14 16 15
8 8 3 7 5 7 11 4 4 5 2 2 6 7 6 4 4 2 2 10 11 5 6 10 14 15 15 15 11 8 3 2 3 3 4 5 4 5 3 1 1 5 7 1 5 2 2 7 8 8 8 12 14 10 11 14 17 19 19 15 14 15 16 16 18 18 17 17 17 16 16 16 17 15 14 14 14 14 14 14 16 15 14 15 13 12 12
9 12 12 6 3 6 3 5 6 4 7 6 4 4 5 7 7 10 6 2 2 4 5 3 1 7 5 10 1 2 6 5 5 3 3 6 2 3 3 2 2 6 4 4 3 2 7 9 10 17 6 7 10 13 14 16 16 16 15 14 13 14 14 15 16 18 17 15 16 16 16 16 16 16 13 12 12 14 15 15 17 16 14 12 12 13 13
8 7 5 3 6 7 6 12 5 3 4 5 10 12 11 9 8 6 4 7 7 6 7 12 14 18 13 10 11 6 4 2 3 2 1 2 5 5 4 5 7 2 4 2 2 8 11 9 13 14 8 5 7 10 11 13 14 12 11 12 10 8 10 12 11 12 15 12 11 13 12 13 14 14 10 10 12 16 17 16 15 15 13 8 10 12 11
6 5 4 6 7 5 6 6 5 9 12 12 8 11 13 21 18 16 19 10 9 11 12 10 12 13 12 7 5 2 5 7 5 6 6 5 3 4 5 5 3 3 3 5 3 5 3 13 16 13 17 16 15 9 9 10 12 13 11 6 8 11 11 11 14 12 14 13 14 11 11 13 12 13 12 11 11 12 13 16 15 10 9 9 10 11 10
10 8 7 8 8 8 9 4 7 8 3 8 11 14 15 16 19 20 13 12 11 11 14 13 14 12 12 8 10 8 6 5 9 5 4 2 6 7 3 2 3 4 3 3 7 15 20 20 17 16 16 15 15 12 12 14 12 9 7 12 17 16 14 13 13 13 13 14 11 9 11 10 11 12 13 12 10 10 12 14 11 8 7 7 11 14 9
7 4 5 2 7 8 3 10 13 5 8 10 14 15 18 18 17 17 12 10 12 13 14 12 10 12 17 12 7 3 2 4 6 5 5 4 6 2 2 5 5 6 8 12 14 13 16 19 19 19 9 9 12 11 14 15 14 14 17 17 15 17 15 10 11 12 14 12 10 8 10 11 12 12 9 7 9 11 13 13 13 9 10 13 13 10 7
10 4 4 7 6 6 16 8 4 5 9 15 17 16 16 13 14 10 4 9 12 13 16 15 12 8 2 3 4 6 8 4 5 4 4 4 2 4 2 2 6 5 6 8 16 17 19 18 18 12 6 10 12 11 12 14 15 17 17 17 16 16 16 13 12 13 13 12 11 11 11 11 11 10 10 13 12 11 12 11 9 7 10 11 10 10 10
6 5 6 5 3 2 8 11 13 13 12 11 11 14 15 17 18 15 15 13 15 16 19 18 15 12 6 7 7 9 9 6 7 8 5 2 6 8 7 8 11 13 11 11 18 19 21 19 14 5 7 9 11 14 15 14 14 15 17 17 16 17 15 14 14 14 12 10 10 11 12 11 8 8 10 9 10 13 7 7 9 10 11 13 12 11 10
9 7 6 6 8 8 2 5 14 17 11 12 15 16 14 15 14 13 12 14 14 14 9 7 4 6 5 7 4 7 5 6 5 4 8 12 8 5 5 8 9 11 14 17 18 18 17 15 11 12 13 15 13 12 14 13 12 13 13 14 12 11 12 13 14 12 11 11 12 13 12 6 7 9 11 14 11 5 4 7 9 11 12 13 13 11 12
5 6 6 5 11 7 2 11 16 14 13 16 17 18 18 19 18 16 14 13 15 15 12 13 9 6 6 3 5 7 6 5 5 12 9 9 6 6 12 16 15 16 20 17 19 18 18 16 14 14 13 12 10 13 12 10 10 12 12 11 12 12 12 11 11 11 11 12 11 8 8 11 13 11 8 5 4 5 6 7 10 11 12 11 11 13 13
6 7 7 8 9 12 13 10 9 10 15 16 18 17 20 22 19 16 16 17 19 20 18 11 10 6 5 10 9 5 5 5 3 6 7 5 6 12 15 18 20 18 18 18 16 14 15 15 12 12 12 14 13 8 6 7 10 11 11 13 12 12 12 11 11 12 12 10 8 12 13 13 8 4 5 5 5 5 8 10 11 11 11 9 10 13 13
Wind_Direction
299 306 317 321 329 335 337 340 352 359 1 42 23 157 235 286 21 26 1 249 211 222 85 169 165 122 101 304 236 218 247 214 60 293 233 266 284 281 239 223 212 239 235 194 239 238 274 256 344 311 245 259 243 132 339 279 250 239 251 184 130 178 225 147 212 231 245 211 162 174 216 230 239 196 222 229 225 349 329 339 336 291 159 210 181 258 53
292 296 305 314 321 330 336 338 350 0 35 109 157 124 179 44 113 157 23 303 293 252 267 11 250 242 292 197 165 166 204 190 170 226 236 260 259 269 266 316 270 314 278 253 231 204 288 164 264 243 123 268 102 110 34 326 299 276 26 333 47 250 150 284 180 187 181 168 172 196 205 229 239 269 135 233 165 214 190 133 198 238 180 332 263 190 98
283 289 292 302 314 320 332 335 345 359 47 139 123 99 161 111 38 87 53 3 269 245 176 186 144 207 175 347 167 157 204 198 218 189 221 148 292 290 271 327 330 259 350 338 306 289 272 264 141 275 254 264 103 121 19 337 304 309 306 299 312 290 164 189 255 197 180 145 310 23 129 204 208 207 219 177 219 169 202 274 129 287 83 74 241 260 102
274 280 286 289 301 310 321 336 341 355 8 149 90 133 116 162 255 33 139 21 57 64 345 34 130 126 161 219 192 140 182 136 153 165 208 147 131 244 315 339 332 253 227 259 291 240 230 241 248 300 265 280 216 181 9 111 306 312 301 1 351 284 315 288 259 270 278 332 30 86 303 248 239 182 239 199 155 353 327 322 266 290 133 214 240 302 322
260 269 276 282 287 300 307 328 340 350 359 168 123 92 97 106 213 17 283 324 73 48 330 134 169 169 185 263 157 199 190 81 156 158 200 156 170 241 313 303 273 219 217 245 278 275 280 245 314 239 260 253 271 266 261 186 341 326 345 27 183 282 251 130 183 268 298 333 325 326 314 266 285 221 228 178 189 182 206 213 255 104 161 246 137 217 236
236 251 266 273 278 285 297 309 328 2 3 132 256 69 359 203 154 116 100 147 255 273 219 142 117 67 267 246 152 189 161 166 179 135 211 91 165 220 188 214 247 282 278 289 253 169 275 248 229 269 215 286 287 6 150 157 348 350 95 53 299 0 291 63 335 286 29 258 306 306 295 262 298 290 273 211 199 186 194 234 222 196 249 277 123 180 217
237 239 241 257 269 274 280 297 316 6 21 152 281 162 358 23 83 148 348 236 292 31 36 124 121 139 202 166 203 203 191 213 190 150 143 169 182 197 250 237 223 241 253 235 301 231 302 258 264 249 225 263 310 31 20 176 15 17 61 50 57 252 255 243 266 296 245 221 230 187 281 294 283 270 265 276 219 218 226 245 225 216 243 328 196 220 248
229 225 232 246 252 261 242 237 145 80 98 120 112 232 167 207 178 172 56 92 98 18 328 132 180 193 192 249 217 199 195 193 146 273 182 169 170 151 221 234 168 226 222 229 262 287 288 325 309 225 216 285 257 301 255 312 13 26 58 34 52 317 32 64 301 284 274 209 210 202 232 222 277 258 240 238 242 269 263 273 274 328 288 260 230 295 287
226 225 223 230 241 248 245 203 155 115 139 330 192 249 249 48 357 140 131 201 141 107 64 222 252 237 182 219 182 183 209 231 195 187 216 237 167 182 205 147 145 173 231 251 260 271 284 295 339 188 232 328 4 318 258 215 308 12 66 35 322 320 109 73 27 296 292 28 351 342 337 304 273 286 263 221 197 248 217 216 202 192 221 115 144 260 252
228 221 223 228 229 238 236 231 169 150 132 159 150 198 131 111 100 267 133 204 166 179 106 322 286 252 204 187 174 200 206 174 150 201 164 230 295 221 176 159 163 183 223 247 248 316 268 290 338 334 309 320 321 345 359 307 317 332 83 213 118 32 141 127 46 275 267 357 355 338 324 300 289 259 248 218 200 219 279 249 244 227 162 161 196 238 65
227 224 219 216 219 224 223 224 169 162 133 175 187 186 178 176 165 132 37 269 189 162 147 224 198 261 86 217 134 91 124 168 216 244 172 170 207 198 180 160 181 227 215 182 65 29 42 22 15 18 318 292 284 297 297 289 260 262 307 163 121 161 172 113 210 224 283 324 317 300 300 268 253 84 157 314 235 202 208 224 211 212 185 220 219 246 137
226 222 217 217 215 218 212 213 177 173 171 187 141 218 197 149 82 88 125 203 251 99 213 224 190 244 211 203 206 182 176 185 208 249 222 187 129 157 175 174 154 228 95 104 123 94 142 168 189 183 177 236 262 256 252 263 267 247 238 287 190 171 120 114 188 223 269 330 307 303 253 245 164 140 142 125 346 19 244 279 295 232 219 250 273 246 218
223 221 218 213 212 213 213 216 184 178 161 140 150 233 175 258 128 159 164 171 248 162 174 248 178 227 279 143 218 239 336 88 47 174 333 159 165 198 199 179 203 45 129 121 124 77 322 270 297 288 274 312 258 234 241 242 252 240 226 247 271 251 139 151 104 129 137 162 88 92 242 233 272 297 341 341 88 105 5 285 257 241 222 226 245 250 225
220 219 216 210 208 211 213 213 191 174 166 147 163 197 152 183 143 125 164 154 258 185 232 288 167 230 184 215 198 102 134 156 128 66 216 227 203 204 212 228 179 66 129 117 88 140 209 124 302 354 282 358 293 309 228 195 204 180 222 228 249 284 355 246 129 262 211 179 182 246 323 319 354 358 171 185 208 169 190 259 267 186 215 199 232 249 236
219 218 215 211 209 207 207 209 200 176 172 170 129 108 159 189 181 156 203 145 255 127 170 232 188 213 174 183 170 144 223 144 178 222 147 44 238 248 195 128 81 139 145 225 171 79 95 79 348 353 327 10 271 256 15 298 86 68 126 246 271 263 280 307 236 222 164 206 273 308 307 267 277 189 77 210 23 76 52 74 287 169 256 220 216 230 218
217 216 214 211 209 206 205 205 199 180 177 164 150 171 197 184 144 100 160 179 135 269 218 222 145 133 146 181 192 188 192 177 203 151 196 209 221 89 84 98 126 127 80 59 17 93 120 213 232 145 257 239 300 15 291 346 330 117 103 58 222 319 254 298 282 122 122 128 185 218 202 244 172 166 159 179 160 132 189 178 286 305 257 267 224 235 218
216 215 213 210 208 208 206 203 199 181 177 164 175 174 221 165 173 175 139 64 181 226 52 110 116 120 102 93 73 254 193 198 167 188 230 200 155 128 115 66 103 217 186 147 337 170 56 66 52 212 296 176 142 273 311 78 189 175 120 111 52 9 347 345 143 166 230 138 168 237 205 249 119 172 173 168 151 147 167 319 305 10 360 310 213 223 192
216 215 213 210 208 208 205 201 197 184 177 177 155 172 206 180 185 133 164 191 172 269 197 178 141 141 195 171 177 159 100 74 56 24 36 92 120 168 152 146 149 313 168 234 171 67 54 168 198 190 232 119 215 59 255 128 204 202 171 164 174 240 178 9 236 228 194 210 269 320 276 251 214 178 140 139 177 219 200 211 81 318 317 281 228 211 146
215 213 212 209 208 207 203 197 196 188 181 179 156 72 238 167 171 164 122 180 163 235 183 217 347 187 136 78 87 151 201 185 167 150 157 186 207 162 136 190 279 166 289 188 126 209 182 241 12 320 223 199 160 204 80 181 217 49 128 115 13 308 113 31 55 206 194 195 229 267 282 252 126 36 125 161 156 173 202 109 107 257 316 120 219 181 165
215 213 211 209 207 206 203 198 193 192 181 175 163 200 169 165 185 176 181 205 213 251 156 205 174 195 191 166 156 154 130 95 225 172 177 173 141 145 125 126 212 100 129 150 210 199 194 223 197 136 261 198 241 143 278 252 128 175 182 229 184 174 161 198 180 147 56 58 286 347 297 31 115 123 109 185 211 253 85 252 196 202 281 196 187 193 183
215 213 211 209 207 206 204 200 196 191 183 178 177 173 201 191 186 207 187 126 169 263 261 170 248 230 182 209 192 167 162 189 165 210 215 77 171 167 163 223 166 169 181 174 184 205 185 195 192 193 274 128 174 123 227 354 278 254 149 182 218 167 223 198 232 193 153 177 177 205 237 74 179 165 168 199 219 64 176 154 230 177 217 211 185 208 198
215 213 210 208 207 205 203 201 198 194 185 180 174 173 208 166 173 176 149 129 218 230 214 265 205 258 264 279 269 208 196 179 189 165 142 140 221 224 59 98 155 179 176 125 73 31 319 100 64 136 195 183 29 233 227 180 258 180 336 78 241 194 211 190 186 176 181 199 216 224 1 211 214 252 3 319 172 163 182 202 224 210 223 193 243 214 187
215 213 211 208 206 205 203 200 197 195 189 183 175 187 193 139 172 155 144 191 280 301 255 281 274 257 257 256 237 224 221 125 111 126 150 130 175 220 198 167 197 173 104 251 209 148 147 147 205 165 73 210 184 186 262 219 299 169 197 215 295 357 49 74 46 238 275 270 237 254 212 182 247 263 265 279 291 269 206 227 250 228 204 180 211 198 196
215 213 211 209 207 205 203 201 198 196 191 184 180 180 184 160 150 133 129 145 167 269 278 203 229 248 220 245 233 166 133 194 208 181 192 166 174 180 356 269 67 58 250 219 162 141 171 141 250 92 243 210 116 201 193 225 219 196 333 289 250 199 150 159 230 292 19 271 105 203 239 202 209 230 254 254 238 238 196 234 230 248 184 208 239 230 203
215 214 211 209 208 205 204 201 199 197 194 189 185 184 130 140 169 160 150 170 184 172 238 298 226 244 83 62 38 138 218 180 112 167 181 211 217 204 200 164 166 175 200 163 174 94 77 124 214 181 230 240 163 249 140 286 269 147 242 225 144 253 174 195 223 163 214 246 176 224 186 239 236 236 241 245 250 248 227 227 241 244 230 216 229 202 236
215 214 212 210 209 207 204 202 200 198 195 190 183 181 185 180 166 166 150 78 90 154 219 252 244 67 213 237 239 202 160 162 176 163 186 192 126 261 128 122 85 50 92 100 211 195 136 101 130 164 200 265 184 242 215 214 346 308 226 240 130 125 140 218 168 211 256 292 276 264 275 281 260 233 225 234 235 239 246 230 235 235 240 235 227 208 221
216 214 213 211 209 207 206 204 201 198 195 191 190 190 182 160 172 175 179 163 131 277 226 247 234 297 132 231 210 86 181 178 159 163 154 152 134 114 118 134 121 128 118 84 11 100 67 88 155 223 186 262 104 251 327 285 232 245 251 185 132 119 218 149 114 239 246 230 251 111 182 243 257 218 227 224 225 226 245 242 225 223 227 232 228 234 221
216 214 213 212 211 209 207 204 201 198 196 192 193 191 179 172 186 186 180 176 185 219 135 194 170 250 130 253 186 113 123 168 168 175 160 141 149 150 151 150 131 132 157 139 134 185 172 178 219 154 314 293 170 246 153 341 359 269 251 232 180 206 194 151 207 210 237 239 246 211 247 292 273 280 201 201 198 194 220 225 231 236 233 225 222 242 229
216 215 213 212 211 210 208 204 200 197 194 191 188 188 203 198 178 192 191 194 204 129 92 110 35 4 257 197 85 133 98 181 176 176 171 154 159 168 165 165 166 142 115 94 112 131 185 225 124 166 191 198 151 255 101 221 199 240 240 234 199 225 192 195 218 231 247 257 269 130 205 242 269 277 194 225 192 186 212 222 225 230 229 207 212 222 226
216 215 214 211 210 209 207 204 200 196 190 182 163 168 209 235 196 199 191 186 190 114 243 235 255 258 35 77 183 164 132 164 168 163 171 161 166 171 166 155 166 160 135 174 168 207 204 181 211 268 280 266 209 176 195 204 233 249 248 253 246 229 211 224 230 226 239 245 272 177 241 258 264 284 244 229 200 199 226 239 235 232 231 204 216 231 222
216 215 214 212 210 210 207 205 200 194 182 172 163 193 203 233 204 184 182 181 173 168 214 92 232 39 284 58 130 183 174 153 162 172 174 159 155 141 127 115 104 170 174 154 201 242 117 233 152 226 109 214 199 184 208 142 266 286 234 217 242 243 228 228 227 238 252 261 259 224 203 254 262 279 274 253 210 199 231 249 244 235 230 194 219 228 236
217 214 214 213 211 210 209 207 203 192 183 168 190 201 196 216 113 151 170 169 145 133 157 163 281 242 255 211 228 238 146 151 123 128 138 147 147 149 146 187 187 183 207 159 223 50 226 123 189 201 175 188 181 292 171 199 254 259 252 166 236 244 249 243 238 222 232 240 246 257 257 258 249 242 252 267 242 198 226 241 250 252 224 227 235 242 250
218 215 214 215 210 209 209 210 203 192 190 199 197 46 127 142 148 152 158 143 136 174 135 180 226 192 231 223 93 288 147 105 106 153 157 171 145 132 158 122 99 81 210 153 204 216 194 178 165 217 221 111 196 215 209 221 239 250 258 249 251 252 259 255 253 225 229 230 206 219 235 243 252 247 251 257 263 250 222 233 248 250 226 239 248 255 252
219 216 215 213 212 210 210 210 204 195 197 193 205 220 183 154 151 147 138 139 113 126 125 180 215 207 223 86 115 172 172 167 169 163 143 133 174 118 155 114 172 175 211 196 248 136 92 35 204 222 78 212 110 250 243 241 243 254 260 256 253 258 262 271 263 251 240 233 212 226 239 248 262 278 297 254 248 254 251 238 252 250 239 229 243 240 246
219 218 215 215 212 211 209 206 201 197 193 199 217 209 146 155 147 148 148 152 132 160 163 237 178 177 182 144 222 184 154 124 162 190 160 131 67 144 142 120 157 187 247 97 263 186 185 210 138 191 215 100 185 224 237 243 249 250 254 256 254 249 263 267 262 248 251 245 236 235 240 246 252 252 252 254 253 252 252 242 218 233 249 245 244 248 241
222 219 218 215 214 211 213 204 197 180 202 199 211 141 142 145 148 160 160 137 130 154 182 201 170 225 209 226 208 179 144 65 62 69 105 127 85 109 109 125 205 226 91 196 221 145 207 143 135 239 143 187 219 203 233 233 245 252 250 250 253 234 235 232 251 266 220 166 218 232 235 236 234 239 240 244 250 257 251 252 230 213 237 248 251 247 242
221 220 217 216 207 205 203 202 168 198 209 153 126 134 134 126 101 139 175 164 350 15 155 158 196 219 190 197 67 184 149 174 158 98 164 160 165 118 115 193 224 132 113 224 192 202 215 137 233 227 193 213 226 218 238 244 239 249 254 249 256 252 247 246 246 263 269 254 237 232 234 238 238 238 240 240 240 245 253 251 237 225 228 235 242 246 242
220 219 213 192 171 200 174 199 189 129 110 120 112 92 138 132 165 161 189 197 224 123 240 171 229 210 100 164 211 167 155 180 123 137 152 217 112 204 178 192 222 177 239 213 219 151 136 196 227 232 248 222 247 246 240 239 243 249 257 258 257 257 253 252 241 238 248 260 258 250 247 241 243 238 232 239 234 240 238 241 241 231 231 235 239 242 248
216 214 198 185 184 203 189 203 132 119 119 123 96 109 145 209 138 182 193 149 179 210 199 207 225 201 174 186 129 153 174 155 149 174 147 204 125 219 148 168 234 146 273 281 228 142 219 222 238 237 253 188 225 247 237 239 252 253 250 249 249 253 255 257 243 233 237 237 244 245 240 245 241 242 228 235 239 237 239 241 243 238 232 234 239 242 242
200 208 181 160 209 191 104 131 126 118 134 138 172 131 144 192 159 186 157 161 225 240 178 222 222 209 182 188 154 180 205 146 156 179 162 152 209 166 182 99 233 124 231 231 204 142 191 254 222 217 254 158 227 245 238 211 239 249 247 246 249 250 250 249 252 243 238 245 245 251 253 250 249 250 253 243 232 237 240 237 238 238 233 233 233 235 237
199 149 182 197 139 124 140 142 116 101 119 141 124 155 151 167 183 176 140 189 190 214 209 233 140 171 191 167 153 167 169 77 25 89 129 162 183 92 155 183 210 128 251 233 171 115 182 262 248 225 224 164 223 246 215 220 234 249 250 239 237 241 243 243 243 247 245 246 246 247 249 248 249 247 244 246 245 244 246 246 239 231 231 232 230 230 234
192 179 135 99 89 112 133 145 154 135 152 193 163 184 173 160 143 70 188 161 198 188 223 182 210 197 187 160 164 120 129 155 119 141 134 186 199 135 194 125 295 185 240 190 97 128 184 248 253 252 228 228 232 228 207 216 231 240 249 241 233 234 236 237 240 244 238 237 243 244 247 246 247 245 240 237 237 239 242 247 251 246 233 232 230 235 231
129 124 113 110 147 178 158 176 217 156 162 178 138 167 179 165 193 154 183 208 265 201 217 66 2 80 82 119 119 198 156 168 138 179 150 176 116 87 161 193 171 227 217 79 121 173 220 238 245 249 235 203 201 207 213 218 231 236 238 238 235 230 224 230 231 239 241 230 234 237 243 245 245 245 241 236 235 241 240 238 240 245 243 232 226 227 231
156 145 117 170 150 223 183 212 184 145 222 189 163 178 161 145 180 155 128 189 172 204 183 159 172 150 175 175 154 137 111 168 174 95 81 171 121 167 157 196 212 251 54 27 196 218 234 243 244 259 240 198 216 205 207 213 226 236 241 239 239 234 223 228 237 242 250 242 232 237 240 245 248 252 242 231 224 229 239 241 239 237 243 234 234 234 233
198 226 150 155 202 189 192 232 182 196 194 192 166 186 173 179 180 177 195 179 184 192 164 172 166 167 152 126 69 323 153 166 165 141 197 150 102 207 165 207 155 95 162 219 244 264 280 255 249 238 247 240 237 205 208 216 218 221 228 238 240 230 220 218 228 227 240 242 234 225 230 238 242 248 245 236 230 225 233 244 245 234 235 232 239 246 235
236 203 178 189 189 207 195 187 176 199 224 172 189 187 174 189 177 195 185 169 180 142 157 168 176 157 147 162 141 171 131 149 163 188 148 121 130 206 177 65 72 128 203 207 228 234 236 243 248 242 230 228 237 216 205 217 217 217 214 238 247 249 240 222 227 227 233 239 239 212 227 230 234 237 242 236 228 229 230 239 242 229 216 217 230 236 231
255 251 246 255 209 201 184 193 200 182 165 168 183 187 185 184 187 188 178 171 161 164 161 165 156 158 156 164 132 100 110 162 156 188 110 126 183 152 85 129 197 184 194 216 220 236 246 248 244 244 214 188 225 203 204 216 215 218 228 236 242 248 249 222 220 225 233 233 236 226 227 228 230 231 238 245 234 225 229 232 233 215 204 220 230 230 222
243 255 240 231 228 172 198 204 116 94 175 186 185 181 191 176 176 181 110 152 156 151 151 139 131 125 117 306 73 147 146 139 125 240 160 170 83 61 183 182 214 217 211 212 229 230 240 244 245 237 198 208 218 205 207 212 214 214 223 230 232 238 244 235 226 228 230 228 225 226 232 230 229 225 222 229 240 237 225 228 224 212 214 229 233 226 217
246 251 251 265 256 231 217 185 178 193 183 173 175 192 184 185 189 171 164 156 163 169 163 159 165 149 166 152 130 169 180 198 165 203 126 111 181 183 173 199 198 220 225 215 235 230 237 240 249 224 197 209 206 206 211 211 208 209 215 223 226 227 232 237 234 232 231 226 225 224 231 230 218 220 228 229 234 248 226 205 207 210 211 218 222 221 217
240 229 241 267 299 300 327 194 195 206 174 169 180 186 182 192 187 180 159 163 164 144 130 58 36 81 182 140 165 195 180 188 153 190 180 193 184 180 196 224 212 210 220 215 230 236 244 244 241 236 227 220 212 202 209 213 203 204 216 221 225 227 230 231 237 238 231 227 225 224 227 218 215 220 219 221 225 227 183 195 203 213 218 217 217 215 214
221 247 248 206 235 274 214 199 204 197 182 191 186 178 178 192 185 177 175 158 147 146 157 162 167 140 161 112 159 172 219 165 172 208 186 180 176 165 209 213 213 212 226 222 223 225 232 236 229 232 234 230 212 213 210 199 188 207 214 217 221 225 230 232 233 240 243 238 229 221 220 222 224 223 225 212 213 205 221 229 220 215 217 216 214 213 216
233 231 218 224 232 245 262 298 293 241 214 191 188 189 184 189 185 174 167 154 158 165 176 164 160 161 179 186 186 149 133 133 238 168 188 236 185 197 213 213 221 217 223 229 233 230 229 233 228 220 226 229 225 206 184 182 198 208 212 218 220 222 225 228 228 231 237 245 228 216 227 233 226 192 177 185 194 200 226 245 234 215 213 214 217 215 221